Location: Grandfresnoy
(49.3722°N, 2.6522°E)
Time: 20:44:56
(UTC+00:00)

Daily predictions for brighter satellites

Satellite Brightness Start Highest point End
(mag) Time Altitude Azimuth Time Altitude Azimuth Time Altitude Azimuth
ATLAS CENTAUR R/B 1.2 16:21:47 10° NW 16:25:01 63° SW 16:28:06 10° SSE
Thor Agena Rocket 3.8 16:22:35 10° SE 16:27:35 50° ENE 16:32:32 10° N
Cosmos 2219 4.5 16:23:43 10° N 16:27:58 21° NE 16:32:14 10° E
CENTAUR R/B 3.1 16:22:49 10° WSW 16:28:32 53° NW 16:35:48 10° NE
Cosmos 1484 Rocket 2.4 16:28:38 10° SSE 16:32:07 73° ENE 16:35:37 10° N
Cosmos 1544 Rocket 3.7 16:28:18 10° S 16:32:37 58° E 16:36:59 10° NNE
USA 290 2.2 16:29:25 10° NNW 16:32:40 64° ENE 16:35:54 10° SSE
SL-16 R/B 2.6 16:27:32 10° NNE 16:33:46 68° ESE 16:39:56 10° S
Lacrosse 5 rocket 2.1 16:30:38 10° W 16:34:06 35° NNW 16:37:30 10° NE
GEOS 3 Rocket 4.4 16:29:36 10° NE 16:34:39 40° ESE 16:39:39 10° S
Cosmos 1980 Rocket 3.9 16:32:06 10° SE 16:34:49 14° E 16:37:31 10° ENE
Iridium 51 4.0 16:34:57 10° S 16:38:04 71° W 16:41:17 10° N
Lacrosse 4 Rocket 3.1 16:35:39 10° W 16:39:02 25° NW 16:42:24 10° NNE
BREEZE M DEB (TANK) 3.7 16:37:07 10° SSW 16:39:22 21° SSE 16:41:03 10° E
CORIOLIS 4.2 16:36:33 10° SSE 16:41:46 58° ENE 16:47:01 10° N
Cosmos 2263 Rocket 2.9 16:38:21 10° NNW 16:43:23 31° NE 16:48:24 10° ESE
Cosmos 2228 3.5 16:39:15 10° SSW 16:43:26 63° WNW 16:47:41 10° N
Cosmos 1777 Rocket 4.2 16:38:42 10° S 16:43:47 53° ESE 16:48:53 10° NNE
CZ-2D R/B 3.5 16:45:40 10° SE 16:48:26 29° ENE 16:51:14 10° N
Okean 1-7 Rocket 3.8 16:46:39 10° N 16:50:54 46° ENE 16:55:06 10° SSE
Cosmos 1602 Rocket 3.5 16:48:28 10° N 16:52:52 70° ENE 16:57:12 10° SSE
IRIDIUM 114 4.4 16:47:44 10° N 16:52:55 57° E 16:58:02 10° SSE
Cosmos 1461 2.8 16:51:20 10° SSW 16:55:09 58° SE 16:58:30 14° NE
Cosmos 1933 3.8 16:53:59 10° SSE 16:57:28 35° E 17:00:59 10° NNE
USA 215 3.8 16:53:50 12° ENE 16:59:38 47° N 17:05:50 10° WNW
IRS-1C 4.1 16:54:33 10° SSE 16:59:46 59° ENE 17:05:00 10° N
Cosmos 2227 Rocket 2.2 16:54:30 10° NNW 17:00:07 59° ENE 17:05:41 10° SE
YAOGAN 1 3.8 16:57:40 10° ESE 17:00:42 19° ENE 17:03:44 10° NNE
NOSS 2-3 (E) 4.5 16:58:50 10° S 17:01:48 23° ESE 17:03:39 16° ENE
IRIDIUM 103 4.3 16:56:52 10° N 17:02:06 69° E 17:07:17 10° SSE
Cosmos 1743 2.6 17:00:10 10° NNW 17:03:24 68° W 17:06:37 10° S
Cosmos 1486 Rocket 4.0 16:58:16 10° SSW 17:03:30 86° WNW 17:08:47 10° NNE
NOSS 7 (H) 3.9 17:00:43 10° NW 17:03:37 74° NE 17:06:47 10° SE
Cosmos 2369 Rocket 4.3 17:00:16 10° WNW 17:03:53 17° NW 17:07:32 10° N
SJ-12 3.8 17:00:53 10° SSE 17:04:33 50° ENE 17:08:13 10° N
Cosmos 2151 2.9 17:02:48 10° N 17:06:59 87° W 17:11:09 10° S
Cosmos 2360 4.3 17:01:56 10° SSW 17:07:40 84° WNW 17:13:27 10° NNE
Cosmos 2279 Rocket 4.4 17:05:15 10° SSW 17:11:26 68° WNW 17:17:41 10° N
Cosmos 1655 Rocket 4.2 17:06:46 10° N 17:12:48 49° ENE 17:18:47 10° SSE
IGS 5A 4.4 17:09:46 10° S 17:13:36 49° W 17:17:29 10° NNW
Cosmos 1697 Rocket 2.8 17:08:59 10° S 17:14:26 57° ESE 17:19:15 14° NE
Cosmos 990 Rocket 4.2 17:09:57 10° S 17:14:52 49° ESE 17:19:09 14° NE
Cosmos 1867 3.7 17:09:29 10° NW 17:14:59 82° SW 17:20:25 10° SSE
Cosmos 1953 Rocket 4.0 17:12:27 10° N 17:16:38 38° ENE 17:20:48 10° SE
MOS 1 Rocket 3.5 17:12:26 10° SSE 17:17:18 62° ENE 17:22:27 10° N
Aureole 1 Rocket 4.4 17:13:47 10° SSE 17:17:30 25° E 17:19:37 20° ENE
SAR-Lupe-4 3.4 17:14:23 10° SSE 17:17:55 77° ENE 17:21:30 10° NNW
IRIDIUM 106 4.4 17:15:11 10° N 17:20:26 86° W 17:25:40 10° S
NOSS 2-2 (D) 4.3 17:20:33 10° W 17:23:21 28° NW 17:25:10 16° NNE
Cosmos 1782 4.1 17:20:08 10° SW 17:23:29 36° WNW 17:26:50 10° N
ARIANE 5 R/B 2.5 17:19:36 10° SSE 17:24:41 88° WSW 17:29:51 10° NNW
Cosmos 2084 Rocket 4.4 17:21:21 10° NW 17:25:25 48° SW 17:29:28 10° SSE
Cosmos 1825 Rocket 3.4 17:21:42 10° N 17:26:04 77° E 17:30:22 10° SSE
SAR-Lupe-1 4.0 17:25:12 10° SSE 17:28:48 89° NE 17:32:26 10° NNW
SOZ 4.1 17:27:03 10° SW 17:29:27 40° SSE 17:29:40 38° SE
Cosmos 2098 Rocket 4.2 17:27:35 10° SSW 17:31:42 47° WNW 17:36:32 10° N
USA 81 4.3 17:28:44 10° N 17:33:47 45° ENE 17:38:48 10° SSE
UNK 4.0 17:30:02 10° N 17:34:36 69° WNW 17:39:07 10° SSW
CZ-2D R/B 3.7 17:32:01 10° SE 17:36:01 44° ENE 17:39:58 10° N
NOSS 3-2 (A) 4.1 17:32:46 10° WSW 17:37:47 42° NNW 17:42:25 16° NNE
Gbstr 26 Del rocket 2.9 17:34:22 10° SW 17:38:20 58° SSE 17:39:37 36° E
IRAS Rocket 4.5 17:33:33 10° SE 17:38:40 43° ENE 17:43:49 10° N
NOSS 3-2 (C) 3.3 17:33:52 10° SW 17:38:59 74° NW 17:43:16 20° NE
SPOT 1/Viking Rocket 3.5 17:36:32 10° SSE 17:41:41 66° ENE 17:46:52 10° N
PSLV R/B 3.8 17:43:07 36° E 17:43:41 38° ENE 17:47:28 10° N
SMAP 4.2 17:39:23 10° S 17:43:50 45° W 17:48:19 10° NNW
Cosmos 1076 Rocket 3.4 17:39:49 10° N 17:44:08 77° E 17:48:27 10° SSE
[s.n.66845] 4.2 17:43:24 10° NNW 17:43:45 12° NNW 17:43:45 12° NNW
[s.n.66847] 4.2 17:43:51 10° NNW 17:44:11 12° NNW 17:44:11 12° NNW
[s.n.66846] 4.2 17:44:17 10° NNW 17:44:36 12° NNW 17:44:36 12° NNW
Cosmos 2082 3.9 17:41:49 10° NNW 17:47:21 47° NE 17:50:41 23° ESE
SL-19 R/B 4.3 17:42:11 10° SE 17:47:24 51° ENE 17:52:55 10° N
[s.n.66843] 4.2 17:44:49 10° NNW 17:45:08 12° NNW 17:45:08 12° NNW
CZ-4C R/B 3.7 17:40:37 10° NW 17:47:30 56° WSW 17:55:55 10° SSE
[s.n.66844] 4.2 17:45:16 10° NNW 17:45:35 12° NNW 17:45:35 12° NNW
[s.n.66842] 4.2 17:45:48 10° NNW 17:46:06 12° NNW 17:46:06 12° NNW
COSMO-SKYMED 1 3.1 17:49:12 34° ESE 17:49:12 34° ESE 17:52:33 10° SSE
[s.n.66841] 4.2 17:46:15 10° NNW 17:46:33 12° NNW 17:46:33 12° NNW
IRS-P3 4.2 17:43:56 10° SSE 17:49:15 78° WSW 17:54:36 10° NNW
[s.n.66840] 4.2 17:46:45 10° NNW 17:47:03 12° NNW 17:47:03 12° NNW
Cosmos 2058 Rocket 3.4 17:45:34 10° SSE 17:49:48 44° E 17:50:44 38° ENE
[s.n.66838] 4.2 17:47:14 10° NNW 17:47:32 12° NNW 17:47:32 12° NNW
[s.n.66839] 4.2 17:47:44 10° NNW 17:48:01 12° NNW 17:48:01 12° NNW
[s.n.66837] 4.2 17:48:12 10° NNW 17:48:29 12° NNW 17:48:29 12° NNW
[s.n.66836] 4.3 17:48:41 10° NNW 17:48:58 12° NNW 17:48:58 12° NNW
[s.n.66835] 4.3 17:49:12 10° NNW 17:49:28 12° NNW 17:49:28 12° NNW
[s.n.66834] 4.3 17:49:41 10° NNW 17:49:57 12° NNW 17:49:57 12° NNW
Cosmos 2297 Rocket 4.3 17:47:35 10° NW 17:52:23 29° WSW 17:57:10 10° SSW
[s.n.66833] 4.3 17:50:08 10° NNW 17:50:24 12° NNW 17:50:24 12° NNW
[s.n.66832] 4.3 17:50:40 10° NNW 17:50:55 12° NNW 17:50:55 12° NNW
[s.n.66831] 4.3 17:51:05 10° NNW 17:51:20 12° NNW 17:51:20 12° NNW
[s.n.66830] 4.3 17:51:32 10° NNW 17:51:47 12° NNW 17:51:47 12° NNW
[s.n.66828] 4.3 17:51:58 10° NNW 17:52:12 12° NNW 17:52:12 12° NNW
[s.n.66829] 4.3 17:52:29 10° NNW 17:52:44 12° NNW 17:52:44 12° NNW
[s.n.66827] 4.3 17:53:01 10° NNW 17:53:15 12° NNW 17:53:15 12° NNW
[s.n.66826] 4.3 17:53:31 10° NNW 17:53:45 12° NNW 17:53:45 12° NNW
[s.n.66825] 4.3 17:53:58 10° NNW 17:54:11 12° NNW 17:54:11 12° NNW
[s.n.66824] 4.4 17:54:29 10° NNW 17:54:42 12° NNW 17:54:42 12° NNW
[s.n.66823] 4.4 17:55:00 10° NNW 17:55:13 12° NNW 17:55:13 12° NNW
[s.n.66822] 4.4 17:55:29 10° NNW 17:55:41 11° NNW 17:55:41 11° NNW
[s.n.66821] 4.4 17:55:57 10° NNW 17:56:09 11° NNW 17:56:09 11° NNW
Cosmos 1538 Rocket 3.9 17:54:30 10° NNW 17:59:49 88° ENE 18:05:09 10° SSE
Cosmos 1606 Rocket 4.2 17:56:37 10° SSW 18:00:57 55° WNW 18:05:20 10° N
Nadezhda 2 Rocket 4.4 17:55:52 10° N 18:01:54 56° ENE 18:07:51 10° SSE
Meteor 1-26 Rocket 4.2 17:58:27 10° S 18:03:40 53° E 18:05:34 36° NE
EXPRESS MD2 4.3 18:01:26 10° SSW 18:03:06 25° S 18:03:06 25° S
Cosmos 1553 Rocket 4.0 18:05:06 10° SSE 18:11:04 54° E 18:14:52 23° NNE
Lacrosse 5 rocket 2.7 18:08:46 10° NW 18:11:16 23° NNW 18:11:16 23° NNW
Resurs 1-3 3.4 18:08:12 10° SSE 18:12:30 85° ENE 18:16:50 10° NNW
GEOS 3 Rocket 4.2 18:09:53 26° NNE 18:12:43 54° NW 18:17:56 10° WSW
Cosmos 2219 3.1 18:07:15 10° NNW 18:13:01 82° ENE 18:17:57 15° SSE
BREEZE-M DEB (TANK) 3.3 18:11:13 10° WSW 18:12:05 27° WSW 18:12:05 27° WSW
SL-16 R/B 4.3 18:11:46 10° N 18:16:52 28° NW 18:21:57 10° WSW
Cosmos 1980 Rocket 2.0 18:12:13 10° SSW 18:17:52 79° ESE 18:19:44 44° NE
Cosmos 1844 Rocket 3.6 18:14:58 10° NNW 18:18:59 32° NNE 18:18:59 32° NNE
CENTAUR R/B 4.1 18:15:10 10° WNW 18:20:52 29° N 18:24:02 22° NNE
USA 281 4.5 18:22:44 22° NNE 18:22:44 22° NNE 18:26:29 10° N
Spot 4 Rocket 4.1 18:19:13 10° S 18:24:19 75° WSW 18:29:28 10° NNW
NOSS 2-3 (C) 3.6 18:21:07 10° SW 18:23:55 55° WSW 18:23:55 55° WSW
Cosmos 1745 Rocket 4.4 18:20:16 10° N 18:24:48 40° NE 18:24:48 40° NE
Cosmos 2263 Rocket 2.8 18:22:03 10° NW 18:27:37 57° WSW 18:33:10 10° S
Cosmos 1898 Rocket 3.3 18:24:52 10° SSW 18:29:59 76° ESE 18:30:11 75° E
Cosmos 2369 3.7 18:25:14 10° S 18:30:42 59° ESE 18:30:42 59° ESE
Cosmos 1244 Rocket 4.5 18:25:37 10° N 18:31:56 83° W 18:38:08 10° S
Cosmos 44 Rocket 4.4 18:28:45 10° NNW 18:32:08 33° N 18:32:08 33° N
YAOGAN 1 3.2 18:32:01 10° S 18:36:11 54° W 18:40:22 10° NNW
Cosmos-2242 3.3 18:32:39 10° SSW 18:36:35 65° WSW 18:36:35 65° WSW
SKYMED 2 4.3 18:36:02 35° NNW 18:37:28 51° WNW 18:41:40 10° SW
USA 238 DEB 3.4 18:33:28 10° SW 18:39:37 87° NW 18:41:14 55° NE
USA 238 3.4 18:33:34 10° SW 18:39:44 88° NW 18:41:19 55° NE
Cosmos 923 Rocket 3.9 18:36:28 10° NNW 18:41:32 84° NNW 18:41:32 84° NNW
USA 215 3.4 18:41:10 50° NE 18:42:02 54° NNE 18:48:23 10° WNW
Cosmos 372 Rocket 4.1 18:37:22 10° SSW 18:42:31 72° WNW 18:43:10 63° NNW
Cosmos 2227 Rocket 4.3 18:39:09 10° NW 18:43:45 26° WSW 18:48:21 10° SSW
Cosmos 1937 Rocket 3.9 18:43:36 10° SSW 18:47:30 52° S 18:47:30 52° S
Cosmos 1386 Rocket 4.3 18:45:44 10° N 18:51:50 88° E 18:58:02 10° S
Cosmos 1697 Rocket 4.2 18:53:47 10° WSW 18:58:43 31° NW 19:00:59 23° N
Aureole 1 Rocket 4.2 18:54:44 10° SW 18:59:14 49° WNW 19:00:03 45° NNW
COSMOS 2455 4.1 19:09:51 10° SSW 19:12:48 30° SSW 19:12:48 30° SSW
Cosmos 1980 Rocket 4.2 19:57:56 10° W 20:01:31 23° WNW 20:01:31 23° WNW
CENTAUR R/B 4.4 20:07:13 10° NW 20:11:08 27° NNW 20:11:08 27° NNW
